TimeEST,TemperatureF,Dew PointF,Humidity,Sea Level PressureIn,VisibilityMPH,Wind Direction,Wind SpeedMPH,Gust SpeedMPH,PrecipitationIn,Events,Conditions,WindDirDegrees,DateUTC
12:17 AM,37.2,19.4,49,30.09,10.0,NNE,15.0,-,N/A,,Clear,20,2013-01-21 05:17:00
12:38 AM,36.5,19.0,49,30.10,10.0,NNE,13.8,21.9,N/A,,Clear,20,2013-01-21 05:38:00
1:00 AM,35.8,19.0,51,30.10,10.0,NNE,10.4,17.3,N/A,,Clear,20,2013-01-21 06:00:00
1:21 AM,35.1,19.2,53,30.11,10.0,NNE,8.1,17.3,N/A,,Clear,30,2013-01-21 06:21:00
1:42 AM,34.0,19.6,56,30.12,10.0,NNE,6.9,-,N/A,,Clear,30,2013-01-21 06:42:00
2:04 AM,33.8,18.9,54,30.12,10.0,NNE,11.5,-,N/A,,Clear,30,2013-01-21 07:04:00
2:25 AM,32.9,19.4,58,30.13,10.0,NE,8.1,-,N/A,,Clear,40,2013-01-21 07:25:00
2:46 AM,32.0,20.1,62,30.13,10.0,NE,6.9,-,N/A,,Clear,40,2013-01-21 07:46:00
3:08 AM,31.8,20.1,62,30.14,10.0,ENE,4.6,-,N/A,,Clear,60,2013-01-21 08:08:00
3:29 AM,30.9,20.5,65,30.15,10.0,NE,5.8,-,N/A,,Clear,50,2013-01-21 08:29:00
3:50 AM,30.2,21.2,69,30.15,10.0,Calm,Calm,-,N/A,,Clear,0,2013-01-21 08:50:00
4:12 AM,29.3,19.9,68,30.14,10.0,ENE,4.6,-,N/A,,Clear,60,2013-01-21 09:12:00
4:33 AM,28.4,20.1,71,30.14,10.0,ENE,3.5,-,N/A,,Clear,70,2013-01-21 09:33:00
4:54 AM,28.8,20.3,71,30.13,10.0,Calm,Calm,-,N/A,,Clear,0,2013-01-21 09:54:00
5:16 AM,28.4,21.2,74,30.13,10.0,Calm,Calm,-,N/A,,Clear,0,2013-01-21 10:16:00
5:37 AM,27.3,19.4,72,30.14,10.0,Calm,Calm,-,N/A,,Clear,0,2013-01-21 10:37:00
5:59 AM,28.4,19.9,71,30.14,10.0,Calm,Calm,-,N/A,,Clear,0,2013-01-21 10:59:00
6:20 AM,27.9,19.8,72,30.15,10.0,Calm,Calm,-,N/A,,Clear,0,2013-01-21 11:20:00
6:40 AM,26.8,19.2,73,30.15,10.0,East,3.5,-,N/A,,Clear,80,2013-01-21 11:40:00
6:45 AM,26.6,19.4,74,30.16,10.0,ENE,3.5,-,N/A,,Mostly Cloudy,70,2013-01-21 11:45:00
7:57 AM,28.4,19.4,69,30.16,10.0,SSE,3.5,-,N/A,,Mostly Cloudy,150,2013-01-21 12:57:00
8:54 AM,32.0,19.4,60,30.15,10.0,East,5.8,-,N/A,,Scattered Clouds,90,2013-01-21 13:54:00
9:50 AM,35.6,17.6,48,30.14,10.0,ESE,5.8,-,N/A,,Scattered Clouds,120,2013-01-21 14:50:00
10:50 AM,37.4,19.4,48,30.12,10.0,ESE,5.8,-,N/A,,Scattered Clouds,120,2013-01-21 15:50:00
11:50 AM,41.0,21.2,45,30.07,10.0,SSE,6.9,-,N/A,,Scattered Clouds,150,2013-01-21 16:50:00
12:53 PM,39.2,21.2,49,30.02,10.0,SSE,11.5,-,N/A,,Scattered Clouds,160,2013-01-21 17:53:00
1:55 PM,41.0,23.0,49,29.96,10.0,South,8.1,-,N/A,,Mostly Cloudy,170,2013-01-21 18:55:00
2:53 PM,44.6,26.6,49,29.90,10.0,South,8.1,-,N/A,,Mostly Cloudy,190,2013-01-21 19:53:00
3:53 PM,46.4,30.2,53,29.87,10.0,South,13.8,18.4,N/A,,Scattered Clouds,190,2013-01-21 20:53:00
4:53 PM,44.6,33.8,66,29.85,10.0,SSW,9.2,-,N/A,,Scattered Clouds,200,2013-01-21 21:53:00
5:55 PM,41.0,33.8,76,29.83,10.0,Calm,Calm,-,N/A,,Mostly Cloudy,0,2013-01-21 22:55:00
6:53 PM,41.0,35.6,81,29.81,10.0,South,8.1,-,N/A,,Mostly Cloudy,180,2013-01-21 23:53:00
7:10 PM,41.0,37.4,87,29.84,10.0,North,13.8,20.7,N/A,,Mostly Cloudy,350,2013-01-22 00:10:00
7:50 PM,33.8,28.4,81,29.89,5.0,North,13.8,27.6,N/A,Snow,Light Snow,10,2013-01-22 00:50:00
8:17 PM,32.0,30.2,93,29.90,10.0,NNE,11.5,-,N/A,,Mostly Cloudy,20,2013-01-22 01:17:00
8:53 PM,32.0,30.2,93,29.91,10.0,North,10.4,18.4,N/A,,Mostly Cloudy,350,2013-01-22 01:53:00
9:57 PM,31.1,28.8,91,29.93,10.0,NNE,5.8,-,N/A,,Clear,30,2013-01-22 02:57:00
10:18 PM,30.6,28.2,91,29.94,10.0,North,4.6,-,N/A,,Clear,350,2013-01-22 03:18:00
10:39 PM,32.0,22.3,67,29.93,10.0,North,12.7,18.4,N/A,,Clear,350,2013-01-22 03:39:00
11:01 PM,32.0,20.1,62,29.93,10.0,NNW,17.3,26.5,N/A,,Clear,340,2013-01-22 04:01:00
11:22 PM,32.0,18.9,58,29.95,10.0,NNW,12.7,19.6,N/A,,Clear,340,2013-01-22 04:22:00
11:43 PM,31.6,17.8,57,29.95,10.0,NNW,18.4,25.3,N/A,,Clear,340,2013-01-22 04:43:00